Back to catalog

THOR ABLESTAR DEB

AliveLEO
NORAD 224·DEBRIS·🇺🇸 United States

Launched Jun 29, 1961 from Cape Canaveral Space Force Station

Loading…

Next Passes (next 24 hours)

TLE

FreshSource: Space-Track

Epoch: Sep 14, 2026, 14:25 UTC

1 00224U 61015BL  26257.60100973  .00000303  00000-0  20470-3 0  9991
2 00224  66.7341 285.9297 0066606 320.2666 121.6705 14.12181289325142

Track THOR ABLESTAR DEB in real time with AllMySat

Download on the App Store